FALCON 9 DEB (49463 NORAD) Tracking and Keplerian Element Data

This shows tracking and keplerian element data for the satellite.

Feedback or suggestion? Click here.




ElementValue
Catalog49463
NameFALCON 9 DEB
Epoch Orbit263
Epoch Day332.77624179
Epoch Year2021
RAAN55.1641
Inclination53.2174
Eccentricity0.0038565
Argument of Perigee91.1056
Mean Anonmoly269.4407
Mean Motion16.27093496
Decay Rate0.0225585
L11 49463U 21104BH 21332.77624179 .02255850 12021-4 50694-3 0 9992
L22 49463 53.2174 55.1641 0038565 91.1056 269.4407 16.27093496 2631

Live tracking and technical data element details for FALCON 9 DEB (NORAD 49463). FALCON 9 DEB can be tracked NOW for your location showing map with azimuth and elevation plus other details from your city location.

Track the satellite on the map from your city or location and see movement details for azimuth, elevation, latitude, longitude, range, height, and movement on the map or in text.







IsCatalogInMostPopularTable: catalog: 49463, numindb: 1
Update: records affected: 1



GetName: 49463 FALCON 9 DEB

Hit Count: updated at: Wed, 08 Dec 2021 16:21:38 GMT